TimeCDT,TemperatureF,Dew PointF,Humidity,Sea Level PressureIn,VisibilityMPH,Wind Direction,Wind SpeedMPH,Gust SpeedMPH,PrecipitationIn,Events,Conditions,WindDirDegrees,DateUTC
12:53 AM,23.0,8.1,53,29.99,10.0,South,8.1,-,N/A,,Overcast,180,2013-03-18 05:53:00
1:53 AM,21.9,10.9,63,29.97,10.0,South,6.9,-,N/A,,Overcast,180,2013-03-18 06:53:00
2:53 AM,21.9,12.0,66,29.94,10.0,Variable,3.5,-,N/A,,Overcast,0,2013-03-18 07:53:00
3:53 AM,23.0,12.9,65,29.89,10.0,SE,4.6,-,N/A,,Overcast,130,2013-03-18 08:53:00
4:53 AM,21.9,14.0,72,29.84,10.0,Variable,5.8,-,N/A,,Overcast,0,2013-03-18 09:53:00
5:53 AM,24.1,15.1,69,29.82,10.0,South,5.8,-,N/A,,Overcast,190,2013-03-18 10:53:00
6:53 AM,24.1,17.1,75,29.80,10.0,Variable,4.6,-,N/A,,Overcast,0,2013-03-18 11:53:00
7:10 AM,24.8,17.6,74,29.74,10.0,South,5.8,-,N/A,,Overcast,180,2013-03-18 12:10:00
7:42 AM,24.8,17.6,74,29.72,10.0,Variable,5.8,-,N/A,,Overcast,0,2013-03-18 12:42:00
7:53 AM,25.0,18.0,75,29.76,10.0,Variable,6.9,-,N/A,,Overcast,0,2013-03-18 12:53:00
8:15 AM,24.8,17.6,74,29.71,2.0,SSE,6.9,-,0.00,Snow,Light Snow,150,2013-03-18 13:15:00
8:22 AM,24.8,19.4,80,29.71,1.2,Variable,4.6,16.1,0.00,Snow,Light Snow,0,2013-03-18 13:22:00
8:35 AM,24.8,19.4,80,29.70,0.8,South,3.5,-,0.00,Snow,Light Snow,170,2013-03-18 13:35:00
8:53 AM,25.0,19.9,81,29.74,0.8,SSE,6.9,-,0.00,Snow,Light Snow,160,2013-03-18 13:53:00
9:14 AM,24.8,21.2,86,29.68,1.2,SSE,8.1,-,0.00,Snow,Light Snow,160,2013-03-18 14:14:00
9:22 AM,24.8,21.2,86,29.68,2.0,Variable,4.6,-,0.00,Snow,Light Snow,0,2013-03-18 14:22:00
9:31 AM,26.6,21.2,80,29.68,4.0,Variable,3.5,-,0.00,Snow,Light Snow,0,2013-03-18 14:31:00
9:53 AM,26.1,19.9,78,29.71,8.0,SSE,5.8,-,0.00,Snow,Light Snow,160,2013-03-18 14:53:00
10:53 AM,28.0,19.9,72,29.68,10.0,Variable,6.9,16.1,0.00,,Overcast,0,2013-03-18 15:53:00
11:53 AM,30.0,21.0,69,29.65,9.0,South,9.2,-,0.00,,Overcast,180,2013-03-18 16:53:00
12:53 PM,30.9,23.0,72,29.61,4.0,South,6.9,-,N/A,,Haze,180,2013-03-18 17:53:00
1:01 PM,30.2,23.0,75,29.57,4.0,South,8.1,-,N/A,,Haze,170,2013-03-18 18:01:00
1:42 PM,30.2,24.8,80,29.55,1.8,South,6.9,-,0.00,Snow,Light Snow,170,2013-03-18 18:42:00
1:53 PM,30.9,25.0,79,29.58,1.2,South,8.1,-,0.00,Snow,Light Snow,190,2013-03-18 18:53:00
2:12 PM,30.2,26.6,86,29.54,0.8,Variable,4.6,-,0.00,Snow,Light Snow,0,2013-03-18 19:12:00
2:53 PM,30.0,27.0,88,29.56,0.8,South,5.8,-,0.00,Snow,Light Snow,170,2013-03-18 19:53:00
3:06 PM,30.2,26.6,86,29.52,0.8,South,4.6,-,0.00,Snow,Light Snow,180,2013-03-18 20:06:00
3:10 PM,30.2,26.6,86,29.52,1.0,South,5.8,-,0.00,Snow,Light Snow,170,2013-03-18 20:10:00
3:16 PM,30.2,26.6,86,29.52,1.0,Variable,4.6,-,0.00,Snow,Light Snow,0,2013-03-18 20:16:00
3:24 PM,30.2,26.6,86,29.51,0.8,South,5.8,-,0.00,Snow,Light Snow,180,2013-03-18 20:24:00
3:37 PM,30.2,26.6,86,29.51,1.0,South,6.9,-,0.00,Snow,Light Snow,170,2013-03-18 20:37:00
3:53 PM,30.9,27.0,85,29.55,2.0,Variable,4.6,-,0.00,Snow,Light Snow,0,2013-03-18 20:53:00
4:00 PM,30.2,26.6,86,29.51,2.0,South,5.8,-,0.00,Snow,Light Snow,180,2013-03-18 21:00:00
4:21 PM,32.0,26.6,80,29.50,4.0,SSW,8.1,-,0.00,,Haze,200,2013-03-18 21:21:00
4:51 PM,30.2,24.8,80,29.50,2.5,SSW,9.2,-,0.00,Snow,Light Snow,210,2013-03-18 21:51:00
4:53 PM,30.9,24.1,76,29.54,2.0,SSW,8.1,-,0.00,Snow,Light Snow,210,2013-03-18 21:53:00
5:03 PM,30.2,24.8,80,29.50,1.5,SW,6.9,-,0.00,Snow,Light Snow,220,2013-03-18 22:03:00
5:15 PM,30.2,26.6,86,29.50,1.2,WSW,8.1,-,0.00,Snow,Light Snow,240,2013-03-18 22:15:00
5:53 PM,27.0,21.0,78,29.55,1.8,WSW,12.7,-,0.00,Snow,Light Snow,240,2013-03-18 22:53:00
5:59 PM,26.6,21.2,80,29.51,3.0,WSW,13.8,-,0.00,Snow,Light Snow,250,2013-03-18 22:59:00
6:10 PM,26.6,21.2,80,29.52,1.8,WSW,12.7,-,0.00,Snow,Light Snow,250,2013-03-18 23:10:00
6:15 PM,26.6,21.2,80,29.52,0.8,WSW,10.4,-,0.00,Snow,Light Snow,250,2013-03-18 23:15:00
6:24 PM,26.6,21.2,80,29.52,0.8,WSW,15.0,-,0.00,Snow,Light Snow,250,2013-03-18 23:24:00
6:35 PM,24.8,19.4,80,29.52,1.5,WSW,13.8,-,0.00,Snow,Light Snow,250,2013-03-18 23:35:00
6:53 PM,24.1,19.0,81,29.57,0.8,WSW,16.1,21.9,0.00,Snow,Light Snow,250,2013-03-18 23:53:00
7:02 PM,24.8,17.6,74,29.53,1.2,WSW,11.5,-,0.00,Snow,Light Snow,250,2013-03-19 00:02:00
7:09 PM,24.8,17.6,74,29.53,3.0,WSW,15.0,20.7,0.00,Snow,Light Snow,240,2013-03-19 00:09:00
7:19 PM,23.0,17.6,80,29.54,4.0,WSW,16.1,21.9,0.00,Snow,Light Snow,240,2013-03-19 00:19:00
7:34 PM,21.2,17.6,86,29.54,2.0,WSW,16.1,24.2,0.00,Snow,Light Snow,250,2013-03-19 00:34:00
7:40 PM,21.2,17.6,86,29.54,1.8,WSW,12.7,24.2,0.00,Snow,Light Snow,250,2013-03-19 00:40:00
7:48 PM,21.2,17.6,86,29.54,2.5,WSW,16.1,20.7,0.00,Snow,Light Snow,240,2013-03-19 00:48:00
7:53 PM,21.9,17.1,82,29.58,3.0,WSW,15.0,20.7,0.00,Snow,Light Snow,240,2013-03-19 00:53:00
8:17 PM,21.2,15.8,80,29.54,9.0,WSW,13.8,21.9,0.00,,Overcast,250,2013-03-19 01:17:00
8:53 PM,21.0,12.9,71,29.58,9.0,WSW,12.7,23.0,0.00,,Overcast,250,2013-03-19 01:53:00
9:18 PM,19.4,15.8,86,29.54,1.8,WSW,11.5,-,0.00,Snow,Light Snow,240,2013-03-19 02:18:00
9:22 PM,19.4,15.8,86,29.54,2.0,WSW,15.0,-,0.00,Snow,Light Snow,240,2013-03-19 02:22:00
9:35 PM,19.4,14.0,80,29.54,3.0,SW,10.4,-,0.00,Snow,Light Snow,230,2013-03-19 02:35:00
9:53 PM,19.9,14.0,78,29.58,3.0,WSW,12.7,18.4,0.00,Snow,Light Snow,240,2013-03-19 02:53:00
10:01 PM,19.4,14.0,80,29.54,2.5,WSW,13.8,-,0.00,Snow,Light Snow,240,2013-03-19 03:01:00
10:53 PM,19.9,15.1,81,29.57,1.8,WSW,10.4,-,0.00,Snow,Light Snow,250,2013-03-19 03:53:00
11:10 PM,19.4,15.8,86,29.53,2.0,WSW,11.5,-,0.00,Snow,Light Snow,250,2013-03-19 04:10:00
11:30 PM,19.4,15.8,86,29.53,2.0,WSW,12.7,-,0.00,Snow,Light Snow,240,2013-03-19 04:30:00
11:50 PM,19.4,15.8,86,29.53,1.5,WSW,10.4,-,0.00,Snow,Light Snow,250,2013-03-19 04:50:00
11:53 PM,19.9,16.0,85,29.57,1.5,WSW,11.5,-,0.00,Snow,Light Snow,250,2013-03-19 04:53:00